Year,Month,Day,Hour,Minute,Value (Times are PST for temperature in C)
2009,09,30,00,00,9.90
2009,09,30,00,01,9.90
2009,09,30,00,02,9.90
2009,09,30,00,03,9.90
2009,09,30,00,04,9.90
2009,09,30,00,05,9.90
2009,09,30,00,06,9.90
2009,09,30,00,07,9.90
2009,09,30,00,08,9.80
2009,09,30,00,09,9.80
2009,09,30,00,10,9.80
2009,09,30,00,11,9.80
2009,09,30,00,12,9.80
2009,09,30,00,13,9.80
2009,09,30,00,14,9.80
2009,09,30,00,15,9.80
2009,09,30,00,16,9.80
2009,09,30,00,17,9.80
2009,09,30,00,18,9.80
2009,09,30,00,19,9.80
2009,09,30,00,20,9.80
2009,09,30,00,21,9.80
2009,09,30,00,22,9.80
2009,09,30,00,23,9.80
2009,09,30,00,24,9.80
2009,09,30,00,25,9.80
2009,09,30,00,26,9.80
2009,09,30,00,27,9.80
2009,09,30,00,28,9.80
2009,09,30,00,29,9.80
2009,09,30,00,30,9.80
2009,09,30,00,31,9.80
2009,09,30,00,32,9.80
2009,09,30,00,33,9.80
2009,09,30,00,34,9.80
2009,09,30,00,35,9.80
2009,09,30,00,36,9.80
2009,09,30,00,37,9.70
2009,09,30,00,38,9.70
2009,09,30,00,39,9.70
2009,09,30,00,40,9.70
2009,09,30,00,41,9.70
2009,09,30,00,42,9.70
2009,09,30,00,43,9.70
2009,09,30,00,44,9.70
2009,09,30,00,45,9.60
2009,09,30,00,46,9.60
2009,09,30,00,47,9.60
2009,09,30,00,48,9.60
2009,09,30,00,49,9.60
2009,09,30,00,50,9.60
2009,09,30,00,51,9.50
2009,09,30,00,52,9.50
2009,09,30,00,53,9.40
2009,09,30,00,54,9.40
2009,09,30,00,55,9.40
2009,09,30,00,56,9.40
2009,09,30,00,57,9.40
2009,09,30,00,58,9.30
2009,09,30,00,59,9.30
2009,09,30,01,00,9.30
2009,09,30,01,01,9.30
2009,09,30,01,02,9.30
2009,09,30,01,03,9.30
2009,09,30,01,04,9.30
2009,09,30,01,05,9.20
2009,09,30,01,06,9.20
2009,09,30,01,07,9.20
2009,09,30,01,08,9.10
2009,09,30,01,09,9.10
2009,09,30,01,10,9.10
2009,09,30,01,11,9.00
2009,09,30,01,12,9.00
2009,09,30,01,13,8.90
2009,09,30,01,14,8.90
2009,09,30,01,15,8.80
2009,09,30,01,16,8.80
2009,09,30,01,17,8.80
2009,09,30,01,18,8.80
2009,09,30,01,19,8.70
2009,09,30,01,20,8.70
2009,09,30,01,21,8.70
2009,09,30,01,22,8.60
2009,09,30,01,23,8.60
2009,09,30,01,24,8.60
2009,09,30,01,25,8.50
2009,09,30,01,26,8.50
2009,09,30,01,27,8.50
2009,09,30,01,28,8.40
2009,09,30,01,29,8.40
2009,09,30,01,30,8.40
2009,09,30,01,31,8.40
2009,09,30,01,32,8.30
2009,09,30,01,33,8.30
2009,09,30,01,34,8.30
2009,09,30,01,35,8.30
2009,09,30,01,36,8.30
2009,09,30,01,37,8.20
2009,09,30,01,38,8.20
2009,09,30,01,39,8.20
2009,09,30,01,40,8.10
2009,09,30,01,41,8.10
2009,09,30,01,42,8.10
2009,09,30,01,43,8.10
2009,09,30,01,44,8.00
2009,09,30,01,45,8.00
2009,09,30,01,46,8.00
2009,09,30,01,47,8.00
2009,09,30,01,48,7.90
2009,09,30,01,49,7.90
2009,09,30,01,50,7.90
2009,09,30,01,51,7.90
2009,09,30,01,52,7.90
2009,09,30,01,53,7.90
2009,09,30,01,54,7.90
2009,09,30,01,55,7.90
2009,09,30,01,56,7.90
2009,09,30,01,57,7.90
2009,09,30,01,58,7.90
2009,09,30,01,59,7.90
2009,09,30,02,00,7.90
2009,09,30,02,01,7.90
2009,09,30,02,02,7.90
2009,09,30,02,03,7.90
2009,09,30,02,04,7.90
2009,09,30,02,05,7.90
2009,09,30,02,06,7.90
2009,09,30,02,07,7.90
2009,09,30,02,08,7.80
2009,09,30,02,09,7.80
2009,09,30,02,10,7.80
2009,09,30,02,11,7.80
2009,09,30,02,12,7.80
2009,09,30,02,13,7.80
2009,09,30,02,14,7.80
2009,09,30,02,15,7.80
2009,09,30,02,16,7.80
2009,09,30,02,17,7.80
2009,09,30,02,18,7.80
2009,09,30,02,19,7.80
2009,09,30,02,20,7.80
2009,09,30,02,21,7.80
2009,09,30,02,22,7.80
2009,09,30,02,23,7.80
2009,09,30,02,24,7.80
2009,09,30,02,25,7.80
2009,09,30,02,26,7.80
2009,09,30,02,27,7.80
2009,09,30,02,28,7.80
2009,09,30,02,29,7.80
2009,09,30,02,30,7.80
2009,09,30,02,31,7.80
2009,09,30,02,32,7.80
2009,09,30,02,33,7.80
2009,09,30,02,34,7.80
2009,09,30,02,35,7.80
2009,09,30,02,36,7.80
2009,09,30,02,37,7.80
2009,09,30,02,38,7.70
2009,09,30,02,39,7.70
2009,09,30,02,40,7.70
2009,09,30,02,41,7.70
2009,09,30,02,42,7.60
2009,09,30,02,43,7.60
2009,09,30,02,44,7.50
2009,09,30,02,45,7.50
2009,09,30,02,46,7.40
2009,09,30,02,47,7.40
2009,09,30,02,48,7.40
2009,09,30,02,49,7.30
2009,09,30,02,50,7.30
2009,09,30,02,51,7.20
2009,09,30,02,52,7.20
2009,09,30,02,53,7.10
2009,09,30,02,54,7.10
2009,09,30,02,55,7.10
2009,09,30,02,56,7.10
2009,09,30,02,57,7.00
2009,09,30,02,58,7.00
2009,09,30,02,59,7.00
2009,09,30,03,00,6.90
2009,09,30,03,01,6.90
2009,09,30,03,02,6.80
2009,09,30,03,03,6.80
2009,09,30,03,04,6.80
2009,09,30,03,05,6.80
2009,09,30,03,06,6.70
2009,09,30,03,07,6.70
2009,09,30,03,08,6.70
2009,09,30,03,09,6.60
2009,09,30,03,10,6.60
2009,09,30,03,11,6.60
2009,09,30,03,12,6.60
2009,09,30,03,13,6.50
2009,09,30,03,14,6.50
2009,09,30,03,15,6.40
2009,09,30,03,16,6.40
2009,09,30,03,17,6.40
2009,09,30,03,18,6.40
2009,09,30,03,19,6.30
2009,09,30,03,20,6.30
2009,09,30,03,21,6.30
2009,09,30,03,22,6.30
2009,09,30,03,23,6.30
2009,09,30,03,24,6.20
2009,09,30,03,25,6.20
2009,09,30,03,26,6.20
2009,09,30,03,27,6.20
2009,09,30,03,28,6.10
2009,09,30,03,29,6.10
2009,09,30,03,30,6.10
2009,09,30,03,31,6.10
2009,09,30,03,32,6.00
2009,09,30,03,33,6.00
2009,09,30,03,34,6.00
2009,09,30,03,35,6.00
2009,09,30,03,36,5.90
2009,09,30,03,37,5.90
2009,09,30,03,38,5.90
2009,09,30,03,39,5.90
2009,09,30,03,40,5.90
2009,09,30,03,41,5.90
2009,09,30,03,42,5.80
2009,09,30,03,43,5.80
2009,09,30,03,44,5.80
2009,09,30,03,45,5.80
2009,09,30,03,46,5.80
2009,09,30,03,47,5.80
2009,09,30,03,48,5.80
2009,09,30,03,49,5.80
2009,09,30,03,50,5.80
2009,09,30,03,51,5.80
2009,09,30,03,52,5.80
2009,09,30,03,53,5.80
2009,09,30,03,54,5.80
2009,09,30,03,55,5.80
2009,09,30,03,56,5.80
2009,09,30,03,57,5.70
2009,09,30,03,58,5.70
2009,09,30,03,59,5.70
2009,09,30,04,00,5.70
2009,09,30,04,01,5.70
2009,09,30,04,02,5.70
2009,09,30,04,03,5.70
2009,09,30,04,04,5.70
2009,09,30,04,05,5.70
2009,09,30,04,06,5.70
2009,09,30,04,07,5.70
2009,09,30,04,08,5.70
2009,09,30,04,09,5.70
2009,09,30,04,10,5.70
2009,09,30,04,11,5.70
2009,09,30,04,12,5.70
2009,09,30,04,13,5.70
2009,09,30,04,14,5.70
2009,09,30,04,15,5.70
2009,09,30,04,16,5.70
2009,09,30,04,17,5.70
2009,09,30,04,18,5.70
2009,09,30,04,19,5.70
2009,09,30,04,20,5.70
2009,09,30,04,21,5.70
2009,09,30,04,22,5.70
2009,09,30,04,23,5.70
2009,09,30,04,24,5.70
2009,09,30,04,25,5.70
2009,09,30,04,26,5.70
2009,09,30,04,27,5.70
2009,09,30,04,28,5.70
2009,09,30,04,29,5.70
2009,09,30,04,30,5.70
2009,09,30,04,31,5.70
2009,09,30,04,32,5.70
2009,09,30,04,33,5.70
2009,09,30,04,34,5.70
2009,09,30,04,35,5.70
2009,09,30,04,36,5.70
2009,09,30,04,37,5.70
2009,09,30,04,38,5.70
2009,09,30,04,39,5.70
2009,09,30,04,40,5.70
2009,09,30,04,41,5.80
2009,09,30,04,42,5.80
2009,09,30,04,43,5.80
2009,09,30,04,44,5.80
2009,09,30,04,45,5.80
2009,09,30,04,46,5.80
2009,09,30,04,47,5.80
2009,09,30,04,48,5.80
2009,09,30,04,49,5.80
2009,09,30,04,50,5.90
2009,09,30,04,51,5.90
2009,09,30,04,52,5.90
2009,09,30,04,53,5.90
2009,09,30,04,54,5.90
2009,09,30,04,55,5.90
2009,09,30,04,56,5.90
2009,09,30,04,57,5.90
2009,09,30,04,58,5.90
2009,09,30,04,59,5.90
2009,09,30,05,00,5.90
2009,09,30,05,01,6.00
2009,09,30,05,02,6.00
2009,09,30,05,03,6.00
2009,09,30,05,04,6.00
2009,09,30,05,05,6.00
2009,09,30,05,06,6.00
2009,09,30,05,07,6.00
2009,09,30,05,08,6.00
2009,09,30,05,09,6.00
2009,09,30,05,10,6.00
2009,09,30,05,11,6.00
2009,09,30,05,12,6.00
2009,09,30,05,13,6.00
2009,09,30,05,14,6.00
2009,09,30,05,15,6.00
2009,09,30,05,16,6.00
2009,09,30,05,17,6.00
2009,09,30,05,18,6.00
2009,09,30,05,19,5.90
2009,09,30,05,20,5.90
2009,09,30,05,21,5.90
2009,09,30,05,22,5.90
2009,09,30,05,23,5.90
2009,09,30,05,24,5.90
2009,09,30,05,25,5.80
2009,09,30,05,26,5.80
2009,09,30,05,27,5.80
2009,09,30,05,28,5.80
2009,09,30,05,29,5.80
2009,09,30,05,30,5.80
2009,09,30,05,31,5.80
2009,09,30,05,32,5.80
2009,09,30,05,33,5.80
2009,09,30,05,34,5.80
2009,09,30,05,35,5.80
2009,09,30,05,36,5.80
2009,09,30,05,37,5.80
2009,09,30,05,38,5.80
2009,09,30,05,39,5.80
2009,09,30,05,40,5.80
2009,09,30,05,41,5.80
2009,09,30,05,42,5.80
2009,09,30,05,43,5.80
2009,09,30,05,44,5.80
2009,09,30,05,45,5.80
2009,09,30,05,46,5.80
2009,09,30,05,47,5.80
2009,09,30,05,48,5.80
2009,09,30,05,49,5.80
2009,09,30,05,50,5.80
2009,09,30,05,51,5.80
2009,09,30,05,52,5.80
2009,09,30,05,53,5.80
2009,09,30,05,54,5.80
2009,09,30,05,55,5.80
2009,09,30,05,56,5.80
2009,09,30,05,57,5.80
2009,09,30,05,58,5.80
2009,09,30,05,59,5.80
2009,09,30,06,00,5.80
2009,09,30,06,01,5.80
2009,09,30,06,02,5.80
2009,09,30,06,03,5.80
2009,09,30,06,04,5.80
2009,09,30,06,05,5.80
2009,09,30,06,06,5.80
2009,09,30,06,07,5.80
2009,09,30,06,08,5.80
2009,09,30,06,09,5.90
2009,09,30,06,10,5.90
2009,09,30,06,11,5.90
2009,09,30,06,12,5.90
2009,09,30,06,13,5.90
2009,09,30,06,14,5.90
2009,09,30,06,15,5.90
2009,09,30,06,16,6.00
2009,09,30,06,17,6.00
2009,09,30,06,18,6.00
2009,09,30,06,19,6.00
2009,09,30,06,20,6.00
2009,09,30,06,21,6.10
2009,09,30,06,22,6.10
2009,09,30,06,23,6.10
2009,09,30,06,24,6.10
2009,09,30,06,25,6.10
2009,09,30,06,26,6.10
2009,09,30,06,27,6.10
2009,09,30,06,28,6.10
2009,09,30,06,29,6.10
2009,09,30,06,30,6.10
2009,09,30,06,31,6.10
2009,09,30,06,32,6.20
2009,09,30,06,33,6.20
2009,09,30,06,34,6.20
2009,09,30,06,35,6.20
2009,09,30,06,36,6.20
2009,09,30,06,37,6.20
2009,09,30,06,38,6.20
2009,09,30,06,39,6.30
2009,09,30,06,40,6.30
2009,09,30,06,41,6.30
2009,09,30,06,42,6.30
2009,09,30,06,43,6.30
2009,09,30,06,44,6.30
2009,09,30,06,45,6.30
2009,09,30,06,46,6.40
2009,09,30,06,47,6.40
2009,09,30,06,48,6.40
2009,09,30,06,49,6.40
2009,09,30,06,50,6.40
2009,09,30,06,51,6.40
2009,09,30,06,52,6.40
2009,09,30,06,53,6.40
2009,09,30,06,54,6.40
2009,09,30,06,55,6.50
2009,09,30,06,56,6.50
2009,09,30,06,57,6.50
2009,09,30,06,58,6.50
2009,09,30,06,59,6.50
2009,09,30,07,00,6.50
2009,09,30,07,01,6.50
2009,09,30,07,02,6.50
2009,09,30,07,03,6.50
2009,09,30,07,04,6.50
2009,09,30,07,05,6.50
2009,09,30,07,06,6.50
2009,09,30,07,07,6.50
2009,09,30,07,08,6.50
2009,09,30,07,09,6.50
2009,09,30,07,10,6.50
2009,09,30,07,11,6.50
2009,09,30,07,12,6.50
2009,09,30,07,13,6.50
2009,09,30,07,14,6.50
2009,09,30,07,15,6.50
2009,09,30,07,16,6.40
2009,09,30,07,17,6.40
2009,09,30,07,18,6.40
2009,09,30,07,19,6.40
2009,09,30,07,20,6.40
2009,09,30,07,21,6.40
2009,09,30,07,22,6.40
2009,09,30,07,23,6.40
2009,09,30,07,24,6.40
2009,09,30,07,25,6.40
2009,09,30,07,26,6.40
2009,09,30,07,27,6.40
2009,09,30,07,28,6.40
2009,09,30,07,29,6.40
2009,09,30,07,30,6.40
2009,09,30,07,31,6.40
2009,09,30,07,32,6.40
2009,09,30,07,33,6.40
2009,09,30,07,34,6.40
2009,09,30,07,35,6.50
2009,09,30,07,36,6.50
2009,09,30,07,37,6.50
2009,09,30,07,38,6.50
2009,09,30,07,39,6.50
2009,09,30,07,40,6.60
2009,09,30,07,41,6.60
2009,09,30,07,42,6.60
2009,09,30,07,43,6.60
2009,09,30,07,44,6.60
2009,09,30,07,45,6.60
2009,09,30,07,46,6.60
2009,09,30,07,47,6.60
2009,09,30,07,48,6.60
2009,09,30,07,49,6.70
2009,09,30,07,50,6.70
2009,09,30,07,51,6.70
2009,09,30,07,52,6.70
2009,09,30,07,53,6.70
2009,09,30,07,54,6.70
2009,09,30,07,55,6.70
2009,09,30,07,56,6.70
2009,09,30,07,57,6.80
2009,09,30,07,58,6.80
2009,09,30,07,59,6.80
2009,09,30,08,00,6.80
2009,09,30,08,01,6.80
2009,09,30,08,02,6.80
2009,09,30,08,03,6.80
2009,09,30,08,04,6.80
2009,09,30,08,05,6.80
2009,09,30,08,06,6.90
2009,09,30,08,07,6.90
2009,09,30,08,08,6.90
2009,09,30,08,09,6.90
2009,09,30,08,10,6.90
2009,09,30,08,11,6.90
2009,09,30,08,12,6.90
2009,09,30,08,13,6.90
2009,09,30,08,14,6.90
2009,09,30,08,15,6.90
2009,09,30,08,16,7.00
2009,09,30,08,17,7.00
2009,09,30,08,18,7.00
2009,09,30,08,19,7.00
2009,09,30,08,20,7.00
2009,09,30,08,21,7.00
2009,09,30,08,22,7.10
2009,09,30,08,23,7.10
2009,09,30,08,24,7.10
2009,09,30,08,25,7.10
2009,09,30,08,26,7.10
2009,09,30,08,27,7.20
2009,09,30,08,28,7.20
2009,09,30,08,29,7.20
2009,09,30,08,30,7.20
2009,09,30,08,31,7.20
2009,09,30,08,32,7.30
2009,09,30,08,33,7.30
2009,09,30,08,34,7.30
2009,09,30,08,35,7.30
2009,09,30,08,36,7.40
2009,09,30,08,37,7.40
2009,09,30,08,38,7.40
2009,09,30,08,39,7.50
2009,09,30,08,40,7.50
2009,09,30,08,41,7.60
2009,09,30,08,42,7.60
2009,09,30,08,43,7.70
2009,09,30,08,44,7.70
2009,09,30,08,45,7.70
2009,09,30,08,46,7.80
2009,09,30,08,47,7.80
2009,09,30,08,48,7.90
2009,09,30,08,49,7.90
2009,09,30,08,50,7.90
2009,09,30,08,51,8.00
2009,09,30,08,52,8.10
2009,09,30,08,53,8.10
2009,09,30,08,54,8.20
2009,09,30,08,55,8.20
2009,09,30,08,56,8.30
2009,09,30,08,57,8.30
2009,09,30,08,58,8.40
2009,09,30,08,59,8.50
2009,09,30,09,00,8.60
2009,09,30,09,01,8.60
2009,09,30,09,02,8.70
2009,09,30,09,03,8.70
2009,09,30,09,04,8.80
2009,09,30,09,05,8.90
2009,09,30,09,06,8.90
2009,09,30,09,07,9.00
2009,09,30,09,08,9.00
2009,09,30,09,09,9.10
2009,09,30,09,10,9.10
2009,09,30,09,11,9.20
2009,09,30,09,12,9.20
2009,09,30,09,13,9.30
2009,09,30,09,14,9.30
2009,09,30,09,15,9.40
2009,09,30,09,16,9.40
2009,09,30,09,17,9.50
2009,09,30,09,18,9.60
2009,09,30,09,19,9.70
2009,09,30,09,20,9.70
2009,09,30,09,21,9.80
2009,09,30,09,22,9.90
2009,09,30,09,23,10.00
2009,09,30,09,24,10.00
2009,09,30,09,25,10.10
2009,09,30,09,26,10.20
2009,09,30,09,27,10.30
2009,09,30,09,28,10.40
2009,09,30,09,29,10.50
2009,09,30,09,30,10.60
2009,09,30,09,31,10.70
2009,09,30,09,32,10.80
2009,09,30,09,33,10.90
2009,09,30,09,34,11.00
2009,09,30,09,35,11.10
2009,09,30,09,36,11.20
2009,09,30,09,37,11.30
2009,09,30,09,38,11.50
2009,09,30,09,39,11.50
2009,09,30,09,40,11.60
2009,09,30,09,41,11.70
2009,09,30,09,42,11.80
2009,09,30,09,43,11.80
2009,09,30,09,44,11.90
2009,09,30,09,45,11.90
2009,09,30,09,46,12.00
2009,09,30,09,47,12.00
2009,09,30,09,48,12.10
2009,09,30,09,49,12.10
2009,09,30,09,50,12.10
2009,09,30,09,51,12.20
2009,09,30,09,52,12.20
2009,09,30,09,53,12.20
2009,09,30,09,54,12.20
2009,09,30,09,55,12.20
2009,09,30,09,56,12.10
2009,09,30,09,57,12.10
2009,09,30,09,58,12.00
2009,09,30,09,59,12.00
2009,09,30,10,00,12.00
2009,09,30,10,01,12.00
2009,09,30,10,02,12.00
2009,09,30,10,03,12.00
2009,09,30,10,04,12.10
2009,09,30,10,05,12.10
2009,09,30,10,06,12.10
2009,09,30,10,07,12.10
2009,09,30,10,08,12.10
2009,09,30,10,09,12.20
2009,09,30,10,10,12.20
2009,09,30,10,11,12.20
2009,09,30,10,12,12.30
2009,09,30,10,13,12.30
2009,09,30,10,14,12.30
2009,09,30,10,15,12.40
2009,09,30,10,16,12.40
2009,09,30,10,17,12.40
2009,09,30,10,18,12.50
2009,09,30,10,19,12.50
2009,09,30,10,20,12.50
2009,09,30,10,21,12.50
2009,09,30,10,22,12.50
2009,09,30,10,23,12.40
2009,09,30,10,24,12.40
2009,09,30,10,25,12.40
2009,09,30,10,26,12.40
2009,09,30,10,27,12.40
2009,09,30,10,28,12.40
2009,09,30,10,29,12.50
2009,09,30,10,30,12.50
2009,09,30,10,31,12.60
2009,09,30,10,32,12.60
2009,09,30,10,33,12.70
2009,09,30,10,34,12.70
2009,09,30,10,35,12.80
2009,09,30,10,36,12.80
2009,09,30,10,37,12.80
2009,09,30,10,38,12.80
2009,09,30,10,39,12.80
2009,09,30,10,40,12.80
2009,09,30,10,41,12.80
2009,09,30,10,42,12.80
2009,09,30,10,43,12.80
2009,09,30,10,44,12.80
2009,09,30,10,45,12.90
2009,09,30,10,46,12.90
2009,09,30,10,47,12.90
2009,09,30,10,48,12.90
2009,09,30,10,49,13.00
2009,09,30,10,50,13.00
2009,09,30,10,51,13.00
2009,09,30,10,52,13.10
2009,09,30,10,53,13.10
2009,09,30,10,54,13.10
2009,09,30,10,55,13.10
2009,09,30,10,56,13.20
2009,09,30,10,57,13.20
2009,09,30,10,58,13.10
2009,09,30,10,59,13.20
2009,09,30,11,00,13.20
2009,09,30,11,01,13.20
2009,09,30,11,02,13.20
2009,09,30,11,03,13.30
2009,09,30,11,04,13.30
2009,09,30,11,05,13.30
2009,09,30,11,06,13.20
2009,09,30,11,07,13.20
2009,09,30,11,08,13.10
2009,09,30,11,09,13.10
2009,09,30,11,10,13.00
2009,09,30,11,11,13.00
2009,09,30,11,12,12.90
2009,09,30,11,13,12.90
2009,09,30,11,14,12.90
2009,09,30,11,15,12.90
2009,09,30,11,16,12.90
2009,09,30,11,17,12.90
2009,09,30,11,18,12.90
2009,09,30,11,19,12.80
2009,09,30,11,20,12.80
2009,09,30,11,21,12.80
2009,09,30,11,22,12.80
2009,09,30,11,23,12.80
2009,09,30,11,24,12.90
2009,09,30,11,25,12.90
2009,09,30,11,26,12.90
2009,09,30,11,27,12.90
2009,09,30,11,28,12.90
2009,09,30,11,29,12.90
2009,09,30,11,30,13.00
2009,09,30,11,31,13.00
2009,09,30,11,32,13.10
2009,09,30,11,33,13.10
2009,09,30,11,34,13.10
2009,09,30,11,35,13.10
2009,09,30,11,36,13.20
2009,09,30,11,37,13.20
2009,09,30,11,38,13.30
2009,09,30,11,39,13.30
2009,09,30,11,40,13.20
2009,09,30,11,41,13.20
2009,09,30,11,42,13.10
2009,09,30,11,43,13.10
2009,09,30,11,44,13.10
2009,09,30,11,45,13.10
2009,09,30,11,46,13.10
2009,09,30,11,47,13.10
2009,09,30,11,48,13.00
2009,09,30,11,49,13.00
2009,09,30,11,50,13.10
2009,09,30,11,51,13.10
2009,09,30,11,52,13.10
2009,09,30,11,53,13.10
2009,09,30,11,54,13.20
2009,09,30,11,55,13.20
2009,09,30,11,56,13.30
2009,09,30,11,57,13.30
2009,09,30,11,58,13.30
2009,09,30,11,59,13.30
2009,09,30,12,00,13.30
2009,09,30,12,01,13.30
2009,09,30,12,02,13.30
2009,09,30,12,03,13.30
2009,09,30,12,04,13.30
2009,09,30,12,05,13.30
2009,09,30,12,06,13.30
2009,09,30,12,07,13.30
2009,09,30,12,08,13.30
2009,09,30,12,09,13.30
2009,09,30,12,10,13.20
2009,09,30,12,11,13.20
2009,09,30,12,12,13.20
2009,09,30,12,13,13.30
2009,09,30,12,14,13.30
2009,09,30,12,15,13.30
2009,09,30,12,16,13.30
2009,09,30,12,17,13.30
2009,09,30,12,18,13.30
2009,09,30,12,19,13.30
2009,09,30,12,20,13.30
2009,09,30,12,21,13.30
2009,09,30,12,22,13.40
2009,09,30,12,23,13.40
2009,09,30,12,24,13.40
2009,09,30,12,25,13.50
2009,09,30,12,26,13.50
2009,09,30,12,27,13.50
2009,09,30,12,28,13.60
2009,09,30,12,29,13.70
2009,09,30,12,30,13.70
2009,09,30,12,31,13.70
2009,09,30,12,32,13.70
2009,09,30,12,33,13.60
2009,09,30,12,34,13.60
2009,09,30,12,35,13.60
2009,09,30,12,36,13.50
2009,09,30,12,37,13.50
2009,09,30,12,38,13.50
2009,09,30,12,39,13.60
2009,09,30,12,40,13.50
2009,09,30,12,41,13.60
2009,09,30,12,42,13.60
2009,09,30,12,43,13.50
2009,09,30,12,44,13.50
2009,09,30,12,45,13.60
2009,09,30,12,46,13.60
2009,09,30,12,47,13.70
2009,09,30,12,48,13.80
2009,09,30,12,49,13.90
2009,09,30,12,50,13.90
2009,09,30,12,51,14.00
2009,09,30,12,52,14.10
2009,09,30,12,53,14.10
2009,09,30,12,54,14.20
2009,09,30,12,55,14.30
2009,09,30,12,56,14.30
2009,09,30,12,57,14.30
2009,09,30,12,58,14.30
2009,09,30,12,59,14.30
2009,09,30,13,00,14.30
2009,09,30,13,01,14.20
2009,09,30,13,02,14.20
2009,09,30,13,03,14.10
2009,09,30,13,04,14.10
2009,09,30,13,05,14.00
2009,09,30,13,06,13.90
2009,09,30,13,07,14.00
2009,09,30,13,08,14.00
2009,09,30,13,09,13.90
2009,09,30,13,10,13.90
2009,09,30,13,11,13.90
2009,09,30,13,12,13.90
2009,09,30,13,13,13.80
2009,09,30,13,14,13.80
2009,09,30,13,15,13.80
2009,09,30,13,16,13.80
2009,09,30,13,17,13.80
2009,09,30,13,18,13.80
2009,09,30,13,19,13.80
2009,09,30,13,20,13.70
2009,09,30,13,21,13.70
2009,09,30,13,22,13.60
2009,09,30,13,23,13.60
2009,09,30,13,24,13.60
2009,09,30,13,25,13.60
2009,09,30,13,26,13.50
2009,09,30,13,27,13.50
2009,09,30,13,28,13.50
2009,09,30,13,29,13.40
2009,09,30,13,30,13.40
2009,09,30,13,31,13.40
2009,09,30,13,32,13.40
2009,09,30,13,33,13.40
2009,09,30,13,34,13.30
2009,09,30,13,35,13.30
2009,09,30,13,36,13.30
2009,09,30,13,37,13.30
2009,09,30,13,38,13.30
2009,09,30,13,39,13.20
2009,09,30,13,40,13.20
2009,09,30,13,41,13.20
2009,09,30,13,42,13.30
2009,09,30,13,43,13.30
2009,09,30,13,44,13.40
2009,09,30,13,45,13.50
2009,09,30,13,46,13.60
2009,09,30,13,47,13.70
2009,09,30,13,48,13.80
2009,09,30,13,49,13.80
2009,09,30,13,50,13.80
2009,09,30,13,51,13.80
2009,09,30,13,52,13.70
2009,09,30,13,53,13.70
2009,09,30,13,54,13.60
2009,09,30,13,55,13.60
2009,09,30,13,56,13.50
2009,09,30,13,57,13.50
2009,09,30,13,58,13.50
2009,09,30,13,59,13.40
2009,09,30,14,00,13.30
2009,09,30,14,01,13.20
2009,09,30,14,02,13.20
2009,09,30,14,03,13.20
2009,09,30,14,04,13.20
2009,09,30,14,05,13.20
2009,09,30,14,06,13.10
2009,09,30,14,07,13.10
2009,09,30,14,08,13.10
2009,09,30,14,09,13.10
2009,09,30,14,10,13.10
2009,09,30,14,11,13.00
2009,09,30,14,12,12.90
2009,09,30,14,13,12.80
2009,09,30,14,14,12.80
2009,09,30,14,15,12.70
2009,09,30,14,16,12.70
2009,09,30,14,17,12.60
2009,09,30,14,18,12.60
2009,09,30,14,19,12.60
2009,09,30,14,20,12.60
2009,09,30,14,21,12.70
2009,09,30,14,22,12.70
2009,09,30,14,23,12.80
2009,09,30,14,24,12.80
2009,09,30,14,25,12.80
2009,09,30,14,26,12.80
2009,09,30,14,27,12.90
2009,09,30,14,28,12.90
2009,09,30,14,29,13.00
2009,09,30,14,30,13.00
2009,09,30,14,31,12.90
2009,09,30,14,32,12.90
2009,09,30,14,33,13.00
2009,09,30,14,34,13.00
2009,09,30,14,35,13.10
2009,09,30,14,36,13.10
2009,09,30,14,37,13.20
2009,09,30,14,38,13.10
2009,09,30,14,39,13.10
2009,09,30,14,40,13.10
2009,09,30,14,41,13.10
2009,09,30,14,42,13.00
2009,09,30,14,43,13.00
2009,09,30,14,44,12.90
2009,09,30,14,45,12.90
2009,09,30,14,46,12.80
2009,09,30,14,47,12.80
2009,09,30,14,48,12.80
2009,09,30,14,49,12.70
2009,09,30,14,50,12.60
2009,09,30,14,51,12.60
2009,09,30,14,52,12.50
2009,09,30,14,53,12.40
2009,09,30,14,54,12.40
2009,09,30,14,55,12.40
2009,09,30,14,56,12.40
2009,09,30,14,57,12.30
2009,09,30,14,58,12.30
2009,09,30,14,59,12.30
2009,09,30,15,00,12.30
2009,09,30,15,01,12.30
2009,09,30,15,02,12.30
2009,09,30,15,03,12.30
2009,09,30,15,04,12.30
2009,09,30,15,05,12.30
2009,09,30,15,06,12.30
2009,09,30,15,07,12.30
2009,09,30,15,08,12.30
2009,09,30,15,09,12.30
2009,09,30,15,10,12.30
2009,09,30,15,11,12.30
2009,09,30,15,12,12.30
2009,09,30,15,13,12.30
2009,09,30,15,14,12.30
2009,09,30,15,15,12.30
2009,09,30,15,16,12.40
2009,09,30,15,17,12.40
2009,09,30,15,18,12.50
2009,09,30,15,19,12.50
2009,09,30,15,20,12.50
2009,09,30,15,21,12.50
2009,09,30,15,22,12.60
2009,09,30,15,23,12.70
2009,09,30,15,24,12.70
2009,09,30,15,25,12.70
2009,09,30,15,26,12.70
2009,09,30,15,27,12.70
2009,09,30,15,28,12.60
2009,09,30,15,29,12.60
2009,09,30,15,30,12.60
2009,09,30,15,31,12.60
2009,09,30,15,32,12.60
2009,09,30,15,33,12.60
2009,09,30,15,34,12.60
2009,09,30,15,35,12.60
2009,09,30,15,36,12.60
2009,09,30,15,37,12.60
2009,09,30,15,38,12.60
2009,09,30,15,39,12.50
2009,09,30,15,40,12.50
2009,09,30,15,41,12.50
2009,09,30,15,42,12.50
2009,09,30,15,43,12.50
2009,09,30,15,44,12.50
2009,09,30,15,45,12.50
2009,09,30,15,46,12.50
2009,09,30,15,47,12.50
2009,09,30,15,48,12.40
2009,09,30,15,49,12.40
2009,09,30,15,50,12.40
2009,09,30,15,51,12.40
2009,09,30,15,52,12.40
2009,09,30,15,53,12.40
2009,09,30,15,54,12.40
2009,09,30,15,55,12.40
2009,09,30,15,56,12.40
2009,09,30,15,57,12.40
2009,09,30,15,58,12.30
2009,09,30,15,59,12.30
2009,09,30,16,00,12.40
2009,09,30,16,01,12.40
2009,09,30,16,02,12.40
2009,09,30,16,03,12.40
2009,09,30,16,04,12.40
2009,09,30,16,05,12.40
2009,09,30,16,06,12.40
2009,09,30,16,07,12.40
2009,09,30,16,08,12.40
2009,09,30,16,09,12.40
2009,09,30,16,10,12.40
2009,09,30,16,11,12.40
2009,09,30,16,12,12.50
2009,09,30,16,13,12.50
2009,09,30,16,14,12.50
2009,09,30,16,15,12.50
2009,09,30,16,16,12.50
2009,09,30,16,17,12.50
2009,09,30,16,18,12.50
2009,09,30,16,19,12.50
2009,09,30,16,20,12.50
2009,09,30,16,21,12.50
2009,09,30,16,22,12.50
2009,09,30,16,23,12.50
2009,09,30,16,24,12.60
2009,09,30,16,25,12.60
2009,09,30,16,26,12.60
2009,09,30,16,27,12.60
2009,09,30,16,28,12.50
2009,09,30,16,29,12.50
2009,09,30,16,30,12.50
2009,09,30,16,31,12.50
2009,09,30,16,32,12.50
2009,09,30,16,33,12.50
2009,09,30,16,34,12.50
2009,09,30,16,35,12.60
2009,09,30,16,36,12.60
2009,09,30,16,37,12.60
2009,09,30,16,38,12.60
2009,09,30,16,39,12.60
2009,09,30,16,40,12.70
2009,09,30,16,41,12.70
2009,09,30,16,42,12.70
2009,09,30,16,43,12.70
2009,09,30,16,44,12.70
2009,09,30,16,45,12.70
2009,09,30,16,46,12.70
2009,09,30,16,47,12.70
2009,09,30,16,48,12.70
2009,09,30,16,49,12.70
2009,09,30,16,50,12.70
2009,09,30,16,51,12.70
2009,09,30,16,52,12.70
2009,09,30,16,53,12.70
2009,09,30,16,54,12.70
2009,09,30,16,55,12.70
2009,09,30,16,56,12.60
2009,09,30,16,57,12.60
2009,09,30,16,58,12.60
2009,09,30,16,59,12.60
2009,09,30,17,00,12.60
2009,09,30,17,01,12.60
2009,09,30,17,02,12.60
2009,09,30,17,03,12.60
2009,09,30,17,04,12.50
2009,09,30,17,05,12.50
2009,09,30,17,06,12.50
2009,09,30,17,07,12.50
2009,09,30,17,08,12.50
2009,09,30,17,09,12.50
2009,09,30,17,10,12.50
2009,09,30,17,11,12.50
2009,09,30,17,12,12.50
2009,09,30,17,13,12.50
2009,09,30,17,14,12.60
2009,09,30,17,15,12.60
2009,09,30,17,16,12.60
2009,09,30,17,17,12.60
2009,09,30,17,18,12.60
2009,09,30,17,19,12.60
2009,09,30,17,20,12.60
2009,09,30,17,21,12.60
2009,09,30,17,22,12.50
2009,09,30,17,23,12.50
2009,09,30,17,24,12.50
2009,09,30,17,25,12.50
2009,09,30,17,26,12.40
2009,09,30,17,27,12.40
2009,09,30,17,28,12.40
2009,09,30,17,29,12.40
2009,09,30,17,30,12.40
2009,09,30,17,31,12.40
2009,09,30,17,32,12.40
2009,09,30,17,33,12.40
2009,09,30,17,34,12.40
2009,09,30,17,35,12.30
2009,09,30,17,36,12.30
2009,09,30,17,37,12.30
2009,09,30,17,38,12.30
2009,09,30,17,39,12.30
2009,09,30,17,40,12.40
2009,09,30,17,41,12.40
2009,09,30,17,42,12.40
2009,09,30,17,43,12.40